| time (UTC) | temp F | wind direction | speed MPH | gust MPH | rain 1hr in | rain 24hr in | rain mn in | humidity % | barometer mb |
| 20260506230736 | 72 | 60 | 8.0 | 6.0 | 0.00 | 0.00 | 0.00 | ||
| 20260506230234 | 72 | 27 | 5.0 | 7.0 | 0.00 | 0.00 | 0.00 | ||
| 20260506225734 | 72 | 65 | 7.0 | 7.0 | 0.00 | 0.00 | 0.00 | ||
| 20260506225235 | 72 | 108 | 8.0 | 6.0 | 0.00 | 0.00 | 0.00 | ||
| 20260506224732 | 72 | 101 | 6.0 | 6.0 | 0.00 | 0.00 | 0.00 | ||
| 20260506224233 | 72 | 42 | 6.0 | 12.0 | 0.00 | 0.00 | 0.00 | ||
| 20260506223733 | 72 | 94 | 7.0 | 7.0 | 0.00 | 0.00 | 0.00 | ||
| 20260506222731 | 72 | 89 | 6.0 | 6.0 | 0.00 | 0.00 | 0.00 | ||
| 20260506222232 | 72 | 56 | 6.0 | 5.0 | 0.00 | 0.00 | 0.00 | ||
| 20260506221729 | 72 | 15 | 7.0 | 7.0 | 0.00 | 0.00 | 0.00 | ||
| 20260506221230 | 72 | 41 | 5.0 | 6.0 | 0.00 | 0.00 | 0.00 | ||
| 20260506220730 | 72 | 82 | 5.0 | 5.0 | 0.00 | 0.00 | 0.00 | ||
| 20260506220228 | 72 | 100 | 3.0 | 4.0 | 0.00 | 0.00 | 0.00 | ||
| 20260506215728 | 72 | 39 | 3.0 | 1.0 | 0.00 | 0.00 | 0.00 | ||
| 20260506215229 | 71 | 8 | 3.0 | 1.0 | 0.00 | 0.00 | 0.00 | ||
| 20260506214726 | 71 | 42 | 3.0 | 0.0 | 0.00 | 0.00 | 0.00 | ||
| 20260506214227 | 72 | 35 | 0.0 | 6.0 | 0.00 | 0.00 | 0.00 | ||
| 20260506213727 | 72 | 60 | 9.0 | 6.0 | 0.00 | 0.00 | 0.00 | ||
| 20260506213225 | 72 | 104 | 4.0 | 4.0 | 0.00 | 0.00 | 0.00 | ||
| 20260506212725 | 71 | 28 | 5.0 | 0.0 | 0.00 | 0.00 | 0.00 | ||
| 20260506212226 | 71 | 32 | 8.0 | 8.0 | 0.00 | 0.00 | 0.00 | ||
| 20260506211723 | 70 | 39 | 5.0 | 5.0 | 0.00 | 0.00 | 0.00 | ||
| 20260506211224 | 70 | 11 | 5.0 | 9.0 | 0.00 | 0.00 | 0.00 | ||
| 20260506210724 | 69 | 42 | 5.0 | 3.0 | 0.00 | 0.00 | 0.00 | ||
| 20260506210222 | 70 | 59 | 4.0 | 2.0 | 0.00 | 0.00 | 0.00 | ||
| 20260506205722 | 70 | 55 | 5.0 | 7.0 | 0.00 | 0.00 | 0.00 | ||
| 20260506205223 | 70 | 28 | 6.0 | 5.0 | 0.00 | 0.00 | 0.00 | ||
| 20260506204720 | 70 | 65 | 6.0 | 3.0 | 0.00 | 0.00 | 0.00 | ||
| 20260506204221 | 69 | 72 | 8.0 | 8.0 | 0.00 | 0.00 | 0.00 | ||
| 20260506203721 | 69 | 58 | 4.0 | 5.0 | 0.00 | 0.00 | 0.00 | ||
| 20260506202719 | 70 | 39 | 5.0 | 9.0 | 0.00 | 0.00 | 0.00 | ||
| 20260506202220 | 69 | 82 | 7.0 | 5.0 | 0.00 | 0.00 | 0.00 | ||
| 20260506201718 | 69 | 44 | 6.0 | 7.0 | 0.00 | 0.00 | 0.00 | ||
| 20260506201218 | 69 | 87 | 6.0 | 3.0 | 0.00 | 0.00 | 0.00 | ||
| 20260506200719 | 68 | 37 | 9.0 | 6.0 | 0.00 | 0.00 | 0.00 | ||
| 20260506200216 | 69 | 63 | 7.0 | 8.0 | 0.00 | 0.00 | 0.00 | ||
| 20260506195717 | 68 | 39 | 7.0 | 6.0 | 0.00 | 0.00 | 0.00 | ||
| 20260506195217 | 67 | 330 | 7.0 | 5.0 | 0.00 | 0.00 | 0.00 | ||
| 20260506194715 | 67 | 60 | 10.0 | 7.0 | 0.00 | 0.00 | 0.00 | ||
| 20260506194215 | 67 | 14 | 9.0 | 6.0 | 0.00 | 0.00 | 0.00 | ||
| 20260506193716 | 67 | 17 | 9.0 | 6.0 | 0.00 | 0.00 | 0.00 | ||
| 20260506193214 | 67 | 10 | 6.0 | 0.0 | 0.00 | 0.00 | 0.00 | ||
| 20260506192714 | 65 | 72 | 8.0 | 10.0 | 0.00 | 0.00 | 0.00 | ||
| 20260506192214 | 64 | 70 | 6.0 | 4.0 | 0.00 | 0.00 | 0.00 | ||
| 20260506191711 | 64 | 18 | 9.0 | 10.0 | 0.00 | 0.00 | 0.00 | ||
| 20260506191212 | 63 | 68 | 7.0 | 7.0 | 0.00 | 0.00 | 0.00 | ||
| 20260506190712 | 63 | 80 | 7.0 | 5.0 | 0.00 | 0.00 | 0.00 | ||
| 20260506190210 | 63 | 30 | 7.0 | 5.0 | 0.00 | 0.00 | 0.00 | ||
| 20260506185709 | 64 | 72 | 7.0 | 8.0 | 0.00 | 0.00 | 0.00 | ||
| 20260506184707 | 63 | 94 | 5.0 | 6.0 | 0.00 | 0.00 | 0.00 | ||
| 20260506184208 | 62 | 60 | 9.0 | 9.0 | 0.00 | 0.00 | 0.00 | ||
| 20260506183708 | 62 | 65 | 9.0 | 7.0 | 0.00 | 0.00 | 0.00 | ||
| 20260506183206 | 63 | 66 | 7.0 | 7.0 | 0.00 | 0.00 | 0.00 | ||
| 20260506182706 | 63 | 3 | 9.0 | 9.0 | 0.00 | 0.00 | 0.00 | ||
| 20260506182207 | 63 | 62 | 9.0 | 7.0 | 0.00 | 0.00 | 0.00 | ||
| 20260506181704 | 63 | 77 | 6.0 | 7.0 | 0.00 | 0.00 | 0.00 | ||
| 20260506181205 | 64 | 23 | 6.0 | 8.0 | 0.00 | 0.00 | 0.00 | ||
| 20260506180705 | 63 | 28 | 5.0 | 3.0 | 0.00 | 0.00 | 0.00 | ||
| 20260506180203 | 63 | 86 | 6.0 | 5.0 | 0.00 | 0.00 | 0.00 | ||
| 20260506175703 | 63 | 30 | 8.0 | 7.0 | 0.00 | 0.00 | 0.00 | ||
| 20260506175204 | 63 | 39 | 7.0 | 7.0 | 0.00 | 0.00 | 0.00 | ||
| 20260506174701 | 62 | 51 | 6.0 | 5.0 | 0.00 | 0.00 | 0.00 | ||
| 20260506174202 | 64 | 4 | 8.0 | 7.0 | 0.00 | 0.00 | 0.00 | ||
| 20260506174022 | 63 | 30 | 7.0 | 7.0 | 0.00 | 0.00 | 0.00 | ||
| 20260506173702 | 63 | 30 | 7.0 | 7.0 | 0.00 | 0.00 | 0.00 | ||
| 20260506173200 | 63 | 13 | 4.0 | 9.0 | 0.00 | 0.00 | 0.00 | ||
| 20260506172700 | 63 | 10 | 7.0 | 5.0 | 0.00 | 0.00 | 0.00 | ||
| 20260506172201 | 63 | 24 | 5.0 | 6.0 | 0.00 | 0.00 | 0.00 | ||
| 20260506171659 | 62 | 24 | 7.0 | 7.0 | 0.00 | 0.00 | 0.00 | ||
| 20260506171159 | 62 | 34 | 3.0 | 2.0 | 0.00 | 0.00 | 0.00 | ||
| 20260506170700 | 63 | 339 | 8.0 | 9.0 | 0.00 | 0.00 | 0.00 | ||
| 20260506170157 | 63 | 329 | 9.0 | 7.0 | 0.00 | 0.00 | 0.00 | ||
| 20260506165658 | 62 | 352 | 9.0 | 10.0 | 0.00 | 0.00 | 0.00 | ||
| 20260506165158 | 61 | 338 | 10.0 | 9.0 | 0.00 | 0.00 | 0.00 | ||
| 20260506164743 | 62 | 353 | 4.0 | 5.0 | 0.00 | 0.00 | 0.00 | ||
| 20260506164656 | 62 | 353 | 4.0 | 5.0 | 0.00 | 0.00 | 0.00 | ||
| 20260506164156 | 62 | 32 | 10.0 | 8.0 | 0.00 | 0.00 | 0.00 | ||
| 20260506163656 | 61 | 359 | 6.0 | 6.0 | 0.00 | 0.00 | 0.00 | ||
| 20260506163155 | 61 | 359 | 7.0 | 5.0 | 0.00 | 0.00 | 0.00 | ||
| 20260506162654 | 61 | 343 | 8.0 | 6.0 | 0.00 | 0.00 | 0.00 | ||
| 20260506162155 | 61 | 338 | 8.0 | 9.0 | 0.00 | 0.00 | 0.00 | ||
| 20260506161653 | 60 | 11 | 9.0 | 7.0 | 0.00 | 0.00 | 0.00 | ||
| 20260506161153 | 60 | 346 | 7.0 | 5.0 | 0.00 | 0.00 | 0.00 | ||
| 20260506160654 | 59 | 4 | 7.0 | 7.0 | 0.00 | 0.00 | 0.00 | ||
| 20260506160151 | 59 | 3 | 8.0 | 10.0 | 0.00 | 0.00 | 0.00 | ||
| 20260506155652 | 58 | 14 | 8.0 | 8.0 | 0.00 | 0.00 | 0.00 | ||
| 20260506155152 | 58 | 4 | 6.0 | 9.0 | 0.00 | 0.00 | 0.00 | ||
| 20260506154806 | 57 | 353 | 6.0 | 3.0 | 0.00 | 0.00 | 0.00 | ||
| 20260506154650 | 57 | 353 | 6.0 | 3.0 | 0.00 | 0.00 | 0.00 | ||
| 20260506154150 | 57 | 350 | 6.0 | 6.0 | 0.00 | 0.00 | 0.00 | ||
| 20260506153650 | 57 | 39 | 7.0 | 7.0 | 0.00 | 0.00 | 0.00 | ||
| 20260506153148 | 57 | 39 | 6.0 | 8.0 | 0.00 | 0.00 | 0.00 | ||
| 20260506152648 | 57 | 24 | 7.0 | 7.0 | 0.00 | 0.00 | 0.00 | ||
| 20260506152149 | 56 | 20 | 9.0 | 7.0 | 0.00 | 0.00 | 0.00 | ||
| 20260506151646 | 57 | 333 | 9.0 | 9.0 | 0.00 | 0.00 | 0.00 | ||
| 20260506151147 | 56 | 359 | 10.0 | 8.0 | 0.00 | 0.00 | 0.00 | ||
| 20260506150647 | 57 | 328 | 10.0 | 9.0 | 0.00 | 0.00 | 0.00 | ||
| 20260506150145 | 57 | 329 | 9.0 | 10.0 | 0.00 | 0.00 | 0.00 | ||
| 20260506145645 | 56 | 323 | 10.0 | 9.0 | 0.00 | 0.00 | 0.00 | ||
| 20260506145146 | 56 | 326 | 9.0 | 9.0 | 0.00 | 0.00 | 0.00 | ||
| 20260506144144 | 56 | 330 | 8.0 | 7.0 | 0.00 | 0.00 | 0.00 | ||
| 20260506143645 | 55 | 328 | 9.0 | 6.0 | 0.00 | 0.00 | 0.00 | ||
| 20260506143403 | 55 | 335 | 11.0 | 9.0 | 0.00 | 0.00 | 0.00 | ||
| 20260506143142 | 55 | 335 | 11.0 | 9.0 | 0.00 | 0.00 | 0.00 | ||
| 20260506142643 | 55 | 322 | 9.0 | 10.0 | 0.00 | 0.00 | 0.00 | ||
| 20260506142143 | 54 | 316 | 11.0 | 8.0 | 0.00 | 0.00 | 0.00 | ||
| 20260506141641 | 54 | 314 | 7.0 | 7.0 | 0.00 | 0.00 | 0.00 | ||
| 20260506141141 | 54 | 345 | 10.0 | 9.0 | 0.00 | 0.00 | 0.00 | ||
| 20260506140642 | 54 | 25 | 9.0 | 7.0 | 0.00 | 0.00 | 0.00 | ||
| 20260506140139 | 54 | 3 | 10.0 | 12.0 | 0.00 | 0.00 | 0.00 | ||
| 20260506135640 | 53 | 350 | 10.0 | 12.0 | 0.00 | 0.00 | 0.00 | ||
| 20260506135140 | 53 | 359 | 9.0 | 9.0 | 0.00 | 0.00 | 0.00 | ||
| 20260506134638 | 53 | 345 | 10.0 | 11.0 | 0.00 | 0.00 | 0.00 | ||
| 20260506134138 | 53 | 353 | 9.0 | 10.0 | 0.00 | 0.00 | 0.00 | ||
| 20260506133639 | 53 | 354 | 10.0 | 10.0 | 0.00 | 0.00 | 0.00 | ||
| 20260506133136 | 53 | 1 | 11.0 | 13.0 | 0.00 | 0.00 | 0.00 | ||
| 20260506132638 | 53 | 349 | 9.0 | 9.0 | 0.00 | 0.00 | 0.00 | ||
| 20260506132137 | 53 | 10 | 10.0 | 8.0 | 0.00 | 0.00 | 0.00 | ||
| 20260506131635 | 53 | 359 | 8.0 | 8.0 | 0.00 | 0.00 | 0.00 | ||
| 20260506131135 | 52 | 18 | 9.0 | 9.0 | 0.00 | 0.00 | 0.00 | ||
| 20260506130636 | 52 | 38 | 12.0 | 12.0 | 0.00 | 0.00 | 0.00 | ||
| 20260506130133 | 52 | 18 | 13.0 | 11.0 | 0.00 | 0.00 | 0.00 | ||
| 20260506125634 | 53 | 336 | 12.0 | 11.0 | 0.00 | 0.00 | 0.00 | ||
| 20260506125135 | 53 | 6 | 10.0 | 11.0 | 0.00 | 0.00 | 0.00 | ||
| 20260506124632 | 54 | 39 | 9.0 | 8.0 | 0.00 | 0.00 | 0.00 | ||
| 20260506124133 | 53 | 10 | 6.0 | 6.0 | 0.00 | 0.00 | 0.00 | ||
| 20260506123633 | 53 | 35 | 7.0 | 8.0 | 0.00 | 0.00 | 0.00 | ||
| 20260506123131 | 53 | 30 | 8.0 | 6.0 | 0.00 | 0.00 | 0.00 | ||
| 20260506122631 | 54 | 14 | 8.0 | 7.0 | 0.00 | 0.00 | 0.00 | ||
| 20260506122132 | 54 | 325 | 10.0 | 9.0 | 0.00 | 0.00 | 0.00 | ||
| 20260506121630 | 54 | 41 | 8.0 | 8.0 | 0.00 | 0.00 | 0.00 | ||
| 20260506121130 | 54 | 27 | 7.0 | 9.0 | 0.00 | 0.00 | 0.00 | ||
| 20260506120631 | 54 | 4 | 9.0 | 6.0 | 0.00 | 0.00 | 0.00 | ||
| 20260506120128 | 54 | 18 | 12.0 | 11.0 | 0.00 | 0.00 | 0.00 | ||
| 20260506115629 | 54 | 0 | 11.0 | 9.0 | 0.00 | 0.00 | 0.00 | ||
| 20260506115129 | 55 | 335 | 9.0 | 9.0 | 0.00 | 0.00 | 0.00 | ||
| 20260506114627 | 56 | 100 | 3.0 | 6.0 | 0.00 | 0.00 | 0.00 | ||
| 20260506114128 | 56 | 20 | 6.0 | 5.0 | 0.00 | 0.00 | 0.00 | ||
| 20260506113706 | 56 | 14 | 9.0 | 8.0 | 0.00 | 0.00 | 0.00 | ||
| 20260506113628 | 56 | 14 | 9.0 | 8.0 | 0.00 | 0.00 | 0.00 | ||
| 20260506113538 | 56 | 28 | 9.0 | 8.0 | 0.00 | 0.00 | 0.00 | ||
| 20260506113126 | 56 | 28 | 9.0 | 8.0 | 0.00 | 0.00 | 0.00 | ||
| 20260506112626 | 57 | 39 | 10.0 | 9.0 | 0.00 | 0.00 | 0.00 | ||
| 20260506112126 | 57 | 4 | 11.0 | 8.0 | 0.00 | 0.00 | 0.00 | ||
| 20260506111623 | 57 | 347 | 10.0 | 12.0 | 0.00 | 0.00 | 0.00 | ||
| 20260506111124 | 57 | 342 | 13.0 | 9.0 | 0.00 | 0.00 | 0.00 | ||
| 20260506110624 | 57 | 340 | 8.0 | 8.0 | 0.00 | 0.00 | 0.00 | ||
| 20260506110122 | 57 | 345 | 8.0 | 8.0 | 0.00 | 0.00 | 0.00 | ||
| 20260506105623 | 58 | 27 | 7.0 | 7.0 | 0.00 | 0.00 | 0.00 | ||
| 20260506105123 | 57 | 21 | 8.0 | 7.0 | 0.00 | 0.00 | 0.00 | ||
| 20260506104621 | 57 | 10 | 7.0 | 8.0 | 0.00 | 0.00 | 0.00 | ||
| 20260506104121 | 58 | 359 | 6.0 | 7.0 | 0.00 | 0.00 | 0.00 | ||
| 20260506103622 | 58 | 20 | 8.0 | 7.0 | 0.00 | 0.00 | 0.00 | ||
| 20260506103120 | 58 | 23 | 6.0 | 7.0 | 0.00 | 0.00 | 0.00 | ||
| 20260506102620 | 58 | 1 | 8.0 | 9.0 | 0.00 | 0.00 | 0.00 | ||
| 20260506102121 | 58 | 11 | 7.0 | 8.0 | 0.00 | 0.00 | 0.00 | ||
| 20260506101618 | 58 | 28 | 8.0 | 7.0 | 0.00 | 0.00 | 0.00 | ||
| 20260506101119 | 59 | 350 | 7.0 | 6.0 | 0.00 | 0.00 | 0.00 | ||
| 20260506100619 | 59 | 17 | 7.0 | 6.0 | 0.00 | 0.00 | 0.00 | ||
| 20260506100117 | 58 | 352 | 8.0 | 9.0 | 0.00 | 0.00 | 0.00 | ||
| 20260506095617 | 58 | 356 | 8.0 | 7.0 | 0.00 | 0.00 | 0.00 | ||
| 20260506095118 | 59 | 352 | 7.0 | 5.0 | 0.00 | 0.00 | 0.00 | ||
| 20260506094616 | 59 | 354 | 6.0 | 8.0 | 0.00 | 0.00 | 0.00 | ||
| 20260506094116 | 59 | 326 | 6.0 | 6.0 | 0.00 | 0.00 | 0.00 | ||
| 20260506093617 | 59 | 10 | 6.0 | 6.0 | 0.00 | 0.00 | 0.00 | ||
| 20260506093114 | 59 | 329 | 7.0 | 7.0 | 0.00 | 0.00 | 0.00 | ||
| 20260506092615 | 59 | 321 | 8.0 | 6.0 | 0.00 | 0.00 | 0.00 | ||
| 20260506092115 | 59 | 326 | 4.0 | 7.0 | 0.00 | 0.00 | 0.00 | ||
| 20260506091613 | 59 | 343 | 6.0 | 7.0 | 0.00 | 0.00 | 0.00 | ||
| 20260506091114 | 59 | 323 | 7.0 | 6.0 | 0.00 | 0.00 | 0.00 | ||
| 20260506090614 | 60 | 338 | 5.0 | 5.0 | 0.00 | 0.00 | 0.00 | ||
| 20260506090112 | 60 | 359 | 7.0 | 8.0 | 0.00 | 0.00 | 0.00 | ||
| 20260506085930 | 60 | 354 | 8.0 | 7.0 | 0.00 | 0.00 | 0.00 | ||
| 20260506085613 | 60 | 354 | 8.0 | 7.0 | 0.00 | 0.00 | 0.00 | ||
| 20260506085113 | 61 | 8 | 9.0 | 10.0 | 0.00 | 0.00 | 0.00 | ||
| 20260506084611 | 61 | 7 | 7.0 | 5.0 | 0.00 | 0.00 | 0.00 | ||
| 20260506084112 | 61 | 359 | 9.0 | 6.0 | 0.00 | 0.00 | 0.00 | ||
| 20260506083612 | 61 | 0 | 10.0 | 9.0 | 0.00 | 0.00 | 0.00 | ||
| 20260506083110 | 62 | 14 | 8.0 | 6.0 | 0.00 | 0.00 | 0.00 | ||
| 20260506082610 | 62 | 347 | 8.0 | 7.0 | 0.00 | 0.00 | 0.00 | ||
| 20260506082111 | 62 | 353 | 6.0 | 6.0 | 0.00 | 0.00 | 0.00 | ||
| 20260506081608 | 62 | 359 | 6.0 | 8.0 | 0.00 | 0.00 | 0.00 | ||
| 20260506081109 | 63 | 356 | 8.0 | 7.0 | 0.00 | 0.00 | 0.00 | ||
| 20260506080609 | 63 | 7 | 9.0 | 7.0 | 0.00 | 0.00 | 0.00 | ||
| 20260506080107 | 63 | 13 | 9.0 | 10.0 | 0.00 | 0.00 | 0.00 | ||
| 20260506073104 | 65 | 4 | 6.0 | 8.0 | 0.00 | 0.00 | 0.00 | ||
| 20260506072605 | 66 | 35 | 9.0 | 10.0 | 0.00 | 0.00 | 0.00 | ||
| 20260506072105 | 66 | 13 | 9.0 | 10.0 | 0.00 | 0.00 | 0.00 | ||
| 20260506071603 | 66 | 25 | 10.0 | 10.0 | 0.00 | 0.00 | 0.00 | ||
| 20260506071103 | 67 | 17 | 8.0 | 10.0 | 0.00 | 0.00 | 0.00 | ||
| 20260506070604 | 67 | 21 | 7.0 | 9.0 | 0.00 | 0.00 | 0.00 | ||
| 20260506062100 | 68 | 44 | 6.0 | 8.0 | 0.00 | 0.00 | 0.00 | ||
| 20260506061558 | 69 | 20 | 8.0 | 7.0 | 0.00 | 0.00 | 0.00 | ||
| 20260506061058 | 69 | 13 | 7.0 | 5.0 | 0.00 | 0.00 | 0.00 | ||
| 20260506060559 | 69 | 21 | 9.0 | 8.0 | 0.00 | 0.00 | 0.00 | ||
| 20260506051053 | 69 | 226 | 0.0 | 0.0 | 0.00 | 0.00 | 0.00 | ||
| 20260506050554 | 69 | 226 | 0.0 | 0.0 | 0.00 | 0.00 | 0.00 | ||
| 20260506045052 | 69 | 239 | 0.0 | 0.0 | 0.00 | 0.00 | 0.00 | ||
| 20260506044550 | 69 | 302 | 1.0 | 0.0 | 0.00 | 0.00 | 0.00 | ||
| 20260506044051 | 69 | 326 | 4.0 | 2.0 | 0.00 | 0.00 | 0.00 | ||
| 20260506043551 | 70 | 253 | 0.0 | 0.0 | 0.00 | 0.00 | 0.00 | ||
| 20260506043049 | 71 | 253 | 0.0 | 0.0 | 0.00 | 0.00 | 0.00 | ||
| 20260506042639 | 72 | 253 | 0.0 | 0.0 | 0.00 | 0.00 | 0.00 | ||
| 20260506042549 | 71 | 253 | 0.0 | 0.0 | 0.00 | 0.00 | 0.00 | ||
| 20260506042050 | 72 | 253 | 0.0 | 0.0 | 0.00 | 0.00 | 0.00 | ||
| 20260506041548 | 71 | 253 | 0.0 | 0.0 | 0.00 | 0.00 | 0.00 | ||
| 20260506041048 | 71 | 253 | 0.0 | 0.0 | 0.00 | 0.00 | 0.00 | ||
| 20260506040549 | 72 | 253 | 0.0 | 0.0 | 0.00 | 0.00 | 0.00 | ||
| 20260506040046 | 72 | 253 | 0.0 | 0.0 | 0.00 | 0.00 | 0.00 | ||
| 20260506035547 | 72 | 253 | 0.0 | 0.0 | 0.00 | 0.00 | 0.00 | ||
| 20260506035047 | 73 | 253 | 0.0 | 0.0 | 0.00 | 0.00 | 0.00 | ||
| 20260506034545 | 73 | 253 | 0.0 | 0.0 | 0.00 | 0.00 | 0.00 | ||
| 20260506034045 | 74 | 253 | 0.0 | 0.0 | 0.00 | 0.00 | 0.00 | ||
| 20260506033546 | 75 | 253 | 0.0 | 0.0 | 0.00 | 0.00 | 0.00 | ||
| 20260506033043 | 75 | 253 | 0.0 | 0.0 | 0.00 | 0.00 | 0.00 | ||
| 20260506032544 | 75 | 253 | 0.0 | 0.0 | 0.00 | 0.00 | 0.00 | ||
| 20260506032044 | 75 | 253 | 0.0 | 0.0 | 0.00 | 0.00 | 0.00 | ||
| 20260506031542 | 76 | 253 | 0.0 | 0.0 | 0.00 | 0.00 | 0.00 | ||
| 20260506031042 | 76 | 253 | 0.0 | 0.0 | 0.00 | 0.00 | 0.00 | ||
| 20260506030543 | 77 | 253 | 0.0 | 0.0 | 0.00 | 0.00 | 0.00 | ||
| 20260506030040 | 77 | 253 | 0.0 | 0.0 | 0.00 | 0.00 | 0.00 | ||
| 20260506025541 | 77 | 253 | 0.0 | 0.0 | 0.00 | 0.00 | 0.00 | ||
| 20260506025041 | 78 | 253 | 0.0 | 0.0 | 0.00 | 0.00 | 0.00 | ||
| 20260506024538 | 78 | 283 | 2.0 | 2.0 | 0.00 | 0.00 | 0.00 | ||
| 20260506024038 | 78 | 263 | 3.0 | 3.0 | 0.00 | 0.00 | 0.00 | ||
| 20260506023539 | 78 | 273 | 4.0 | 5.0 | 0.00 | 0.00 | 0.00 | ||
| 20260506023036 | 78 | 287 | 4.0 | 4.0 | 0.00 | 0.00 | 0.00 | ||
| 20260506022537 | 79 | 281 | 5.0 | 3.0 | 0.00 | 0.00 | 0.00 | ||
| 20260506022037 | 79 | 291 | 5.0 | 3.0 | 0.00 | 0.00 | 0.00 | ||
| 20260506021535 | 79 | 288 | 3.0 | 1.0 | 0.00 | 0.00 | 0.00 | ||
| 20260506021204 | 80 | 259 | 0.0 | 1.0 | 0.00 | 0.00 | 0.00 | ||
| 20260506021035 | 80 | 259 | 0.0 | 1.0 | 0.00 | 0.00 | 0.00 | ||
| 20260506020536 | 80 | 297 | 2.0 | 1.0 | 0.00 | 0.00 | 0.00 | ||
| 20260506020033 | 80 | 301 | 4.0 | 4.0 | 0.00 | 0.00 | 0.00 | ||
| 20260506015534 | 80 | 298 | 3.0 | 3.0 | 0.00 | 0.00 | 0.00 | ||
| 20260506015034 | 80 | 291 | 3.0 | 4.0 | 0.00 | 0.00 | 0.00 | ||
| 20260506014532 | 81 | 293 | 4.0 | 3.0 | 0.00 | 0.00 | 0.00 | ||
| 20260506014032 | 82 | 290 | 4.0 | 3.0 | 0.00 | 0.00 | 0.00 | ||
| 20260506013533 | 82 | 294 | 5.0 | 4.0 | 0.00 | 0.00 | 0.00 | ||
| 20260506013030 | 82 | 284 | 5.0 | 6.0 | 0.00 | 0.00 | 0.00 | ||
| 20260506012531 | 83 | 281 | 6.0 | 5.0 | 0.00 | 0.00 | 0.00 | ||
| 20260506012031 | 83 | 283 | 7.0 | 6.0 | 0.00 | 0.00 | 0.00 | ||
| 20260506011529 | 84 | 280 | 5.0 | 7.0 | 0.00 | 0.00 | 0.00 | ||
| 20260506011029 | 85 | 277 | 5.0 | 4.0 | 0.00 | 0.00 | 0.00 | ||
| 20260506010529 | 85 | 304 | 6.0 | 4.0 | 0.00 | 0.00 | 0.00 | ||
| 20260506010027 | 86 | 290 | 8.0 | 7.0 | 0.00 | 0.00 | 0.00 | ||
| 20260506005527 | 87 | 285 | 5.0 | 8.0 | 0.00 | 0.00 | 0.00 | ||
| 20260506005028 | 87 | 266 | 6.0 | 9.0 | 0.00 | 0.00 | 0.00 | ||
| 20260506004525 | 87 | 293 | 7.0 | 4.0 | 0.00 | 0.00 | 0.00 | ||
| 20260506004026 | 88 | 243 | 6.0 | 8.0 | 0.00 | 0.00 | 0.00 | ||
| 20260506003526 | 89 | 271 | 7.0 | 6.0 | 0.00 | 0.00 | 0.00 | ||
| 20260506003023 | 89 | 321 | 3.0 | 2.0 | 0.00 | 0.00 | 0.00 | ||
| 20260506002524 | 89 | 238 | 1.0 | 2.0 | 0.00 | 0.00 | 0.00 | ||
| 20260506002024 | 90 | 231 | 1.0 | 0.0 | 0.00 | 0.00 | 0.00 | ||
| 20260506001522 | 90 | 211 | 3.0 | 3.0 | 0.00 | 0.00 | 0.00 | ||
| 20260506001022 | 90 | 246 | 2.0 | 3.0 | 0.00 | 0.00 | 0.00 | ||
| 20260506000522 | 89 | 238 | 3.0 | 3.0 | 0.00 | 0.00 | 0.00 | ||
| 20260506000020 | 89 | 240 | 3.0 | 2.0 | 0.00 | 0.00 | 0.00 | ||
| 20260505235520 | 89 | 231 | 4.0 | 7.0 | 0.00 | 0.00 | 0.00 | ||
| 20260505235021 | 89 | 229 | 4.0 | 4.0 | 0.00 | 0.00 | 0.00 | ||
| 20260505234518 | 90 | 228 | 5.0 | 3.0 | 0.00 | 0.00 | 0.00 | ||
| 20260505234018 | 90 | 228 | 4.0 | 6.0 | 0.00 | 0.00 | 0.00 | ||
| 20260505233519 | 90 | 215 | 6.0 | 8.0 | 0.00 | 0.00 | 0.00 | ||
| 20260505233016 | 90 | 224 | 4.0 | 3.0 | 0.00 | 0.00 | 0.00 | ||
| 20260505232516 | 90 | 249 | 7.0 | 6.0 | 0.00 | 0.00 | 0.00 | ||
| 20260505232017 | 91 | 229 | 8.0 | 8.0 | 0.00 | 0.00 | 0.00 | ||
| 20260505231514 | 91 | 238 | 5.0 | 3.0 | 0.00 | 0.00 | 0.00 |